Location: Betz
(49.1556°N, 2.9558°E)
Time: 00:59:30
(UTC+00:00)

Cosmos 2333 Rocket - Pass Details

Date: 18 September 2019
Orbit: 840 x 862 km, 70.8° (Epoch: 21 October)

Event Time Altitude Azimuth Distance (km) Brightness Sun altitude
Rises 19:30:48 0° 326° (NW) 3,423 6.3 -16.0°
Reaches altitude 10° 19:33:23 10° 319° (NW) 2,486 5.7 -16.3°
Maximum altitude 19:38:37 39° 252° (WSW) 1,270 3.5 -17.1°
Drops below altitude 10° 19:43:51 10° 186° (S) 2,484 4.4 -17.9°
Enters shadow 19:46:09 - 179° (S) 3,313 5.0 -18.3°
